Location: Nebula Knoll Observatory
(43.6666°N, 71.0000°W)
Time: 02:34:34
(UTC-04:00)

Cosmos 1782 - Visible Passes

Search period start: 21 April 2015 00:00
Search period end: 01 May 2015 00:00
Orbit: 543 x 561 km, 82.5° (Epoch: 19 April)

Date Brightness Start Highest point End Pass type
(mag) Time Alt. Az. Time Alt. Az. Time Alt. Az.
21 Apr 4.2 21:40:27 26° ENE 21:40:27 26° ENE 21:42:53 10° NNE visible
21 Apr 5.2 23:16:10 20° WNW 23:16:10 20° WNW 23:18:52 10° NNW visible
22 Apr 3.8 21:36:16 32° ENE 21:36:16 32° ENE 21:39:17 10° NNE visible
22 Apr 5.2 23:12:00 18° WNW 23:12:14 18° WNW 23:15:02 10° NNW visible
23 Apr 3.4 21:32:02 38° E 21:32:02 38° E 21:35:39 10° NNE visible
23 Apr 5.3 23:07:45 16° W 23:08:36 17° WNW 23:11:11 10° NNW visible
24 Apr 3.2 21:27:45 41° ESE 21:28:10 43° E 21:32:01 10° NNE visible
24 Apr 5.5 23:03:27 13° W 23:04:57 15° WNW 23:07:18 10° NNW visible
25 Apr 3.0 21:23:23 37° SE 21:24:27 48° E 21:28:22 10° NNE visible
25 Apr 5.7 22:59:06 10° W 23:01:18 14° WNW 23:03:21 10° NW visible
26 Apr 2.9 21:18:55 29° SSE 21:20:44 54° E 21:24:41 10° NNE visible
26 Apr 5.7 22:55:48 10° W 22:57:40 12° WNW 22:59:21 10° NW visible
27 Apr 2.8 21:14:22 20° S 21:17:01 61° E 21:21:00 10° NNE visible
27 Apr 5.9 22:52:36 10° W 22:54:01 11° WNW 22:55:13 10° NW visible
28 Apr 2.7 21:09:41 12° S 21:13:18 68° E 21:17:18 10° NNE visible
28 Apr 6.0 22:49:48 10° WNW 22:50:22 10° WNW 22:50:42 10° WNW visible
29 Apr 2.7 21:05:33 10° S 21:09:34 77° E 21:13:36 10° NNE visible
30 Apr 2.7 21:01:49 10° S 21:05:50 85° E 21:09:52 10° N visible
